Flag for Canada Weather past 2 weeks in Shawinigan, Quebec, Canada

Now
36 °F

Chilly.


Feels Like: 33 °F
Forecast: 30 / 35 °F
Wind: 3 mph from West

Location: Shawinigan CS

Current Time: Dec 27, 2014 at 11:01:00 AM

Latest Report: Dec 27, 2014 at 10:00 AM


Visibility: N/A

Pressure: 30.13 "Hg

Humidity: 71%

Dew point: 27 °F

Location of ShawiniganLocation

Historic Weather in Shawinigan — Graph

°F

Shawinigan temperature yesterday

Maximum temperature yesterday: 40 °F (at 11:00 AM)
Minimum temperature yesterday: 35 °F (at 7:00 PM)
Average temperature yesterday: 37 °F

Past Weeks' High & Low Weather Summary

 TemperatureHumidityPressure
High41 °F (Dec 25, 12:00 PM)100% (Dec 12, 3:00 PM)30.45 "Hg (Dec 12, 3:00 PM)
Low8 °F (Dec 20, 8:00 AM)51% (Dec 26, 11:00 AM)29.21 "Hg (Dec 25, 7:00 AM)
Average27 °F83%30.00 "Hg
* Reported Dec 12 10:00 AM — Dec 27 10:00 AM, Shawinigan, Weather by CustomWeather, © 2014

Note: Actual official high and low records may vary slightly from our data, if they occured in-between our weather recording intervals... More about our weather records

Advertising

Shawinigan weather history for previous 24 hours

 ConditionsComfort  
Time TempWeatherWind HumidityBarometerVisibility
10:00 AM
Dec 27
36 °FChilly.3 mph71%30.13 "HgN/A
9:00 AM35 °FChilly.2 mph77%30.14 "HgN/A
8:00 AM34 °FChilly.2 mph83%30.12 "HgN/A
7:00 AM34 °FChilly.1 mph82%30.10 "HgN/A
6:00 AM34 °FChilly.1 mph86%30.09 "HgN/A
5:00 AM33 °FChilly.1 mph88%30.08 "HgN/A
4:00 AM37 °FChilly.6 mph76%30.06 "HgN/A
3:00 AM36 °FChilly.7 mph79%30.03 "HgN/A
2:00 AM36 °FChilly.5 mph79%30.02 "HgN/A
1:00 AM36 °FChilly.6 mph79%30.01 "HgN/A
12:00 AM36 °FChilly.6 mph79%30.01 "HgN/A
11:00 PM
Dec 26
36 °FChilly.8 mph79%30.01 "HgN/A
10:00 PM36 °FChilly.6 mph80%30.01 "HgN/A
9:00 PM36 °FChilly.6 mph81%30.02 "HgN/A
8:00 PM36 °FChilly.6 mph82%30.02 "HgN/A
7:00 PM35 °FChilly.8 mph93%30.02 "HgN/A
6:00 PM36 °FChilly.5 mph81%30.01 "HgN/A
5:00 PM36 °FChilly.3 mph77%30.00 "HgN/A
4:00 PM37 °FChilly.5 mph74%30.00 "HgN/A
3:00 PM39 °FChilly.7 mph62%29.99 "HgN/A
2:00 PM39 °FChilly.7 mph63%29.98 "HgN/A
1:00 PM39 °FChilly.9 mph59%29.99 "HgN/A
12:00 PM39 °FChilly.12 mph56%29.99 "HgN/A
11:00 AM40 °FChilly.12 mph51%30.01 "HgN/A
Weather by CustomWeather, © 2014

See weather overviewHow to use our weather pages